STARLINK-11733

Satellite information

Favourite Embed

Satellite Type and Status

PAYLOADIN ORBIT

Key statistics

Satellite STARLINK-11733 at a glance.

Uptime

206

Days in orbit

Revolutions

≈ 15.7

Per day

Orbit

LEO

Low Earth Orbit

Inclination

43.0

Latest

Satellite identification and parameters

Extended collection of information and parameters for STARLINK-11733.

Object identification

Identified? True

Debris? False

Object name: STARLINK-11733

International designator: 2025-107J

Object number (NORAD): 64072

Object ID (CCSDS): 64072

Country: UNITED STATES OF AMERICA (US)

Current information (Y/N): Y

RCS size: LARGE

Orbital parameters

Period: 91.67 minutes

Inclination: 42.9992 deg

SMA: 6734.617 km

Apoapsis: 356.975 km

Periapsis: 355.988 km

RAAN: 265.7321 deg

Eccentricy: 0.0000733

Argument of periapsis: 322.5519 deg

Mean anomaly: 37.5297 deg

Mean motion: 15.70845352 rev/day

Mean motion (dot): 0.00304428 rev/day2

B* drag term: 0.0022895434 1/REarth

Two-line elements (TLE)

Creation date: Dec. 12, 2025, 10:14 a.m.

Reference frame: TEME

Reference center: EARTH

Epoch: Dec. 12, 2025, 4 a.m. UTC

TLE line 0: 0 STARLINK-11733

TLE line 1: 1 64072U 25107J 25346.16707115 .00304428 00000-0 22895-2 0 9991

TLE line 2: 2 64072 42.9992 265.7321 0000733 322.5519 37.5297 15.70845352 33539

Live tracking on map

Real-time ground track for satellite STARLINK-11733.

In-orbit conjunctions

There are no conjunctions computed for STARLINK-11733, at the moment. Check back to stay up to date, as we update our databases every day.

Go to all conjunctions

Associated space launch

A batch of 23 satellites for the Starlink mega-constellation - SpaceX's project for space-based Internet communication system.

STARLINK-11733 was lifted into orbit during the mission ‘Falcon 9 Block 5 | Starlink Group 12-15’, on board a Falcon 9 space rocket.

The launch took place on May 21, 2025, 3:19 a.m. from Space Launch Complex 40.

For more information about the launch, click the button.

Launch to space Falcon 9 Block 5 | Starlink Group 12-15
Falcon 9 Block 5 | Starlink Group 12-15

Agency: SpaceX

Status: Launch Successful

Launch date: May 21, 2025, 3:19 a.m. UTC

Rocket: Falcon 9

Launch pad: Space Launch Complex 40

Location: Cape Canaveral SFS, FL, USA

...

Latest news about this satellite

News about space launch
Live coverage: New Falcon 9 booster to make second attempt at debut on Starlink delivery mission

SpaceX will try again Tuesday to launch a brand new Falcon 9 booster after an abort halted its first attempt. Liftoff from pad 40 at Cape Canaveral, with 23 Starlink satellites aboard, is scheduled for 11:19 p.m. EDT (0319 UTC).

News about space launch
Launch Roundup: SpaceX to start new Starlink shell; China, Russia to launch unknown payloads

This week, SpaceX will begin building a new shell for its Starlink constellation, launching from… The post Launch Roundup: SpaceX to start new Starlink shell; China, Russia to launch unknown payloads appeared first on NASASpaceFlight.com.

News about space launch
Live coverage: SpaceX to launch 23 Starlink satellites on Falcon 9 launch from Cape Canaveral

The Starlink 12-15 mission is SpaceX’s 60th Falcon 9 launch of 2025. Liftoff from Space Launch Complex 40 at Cape Canaveral Space Force Station is targeting 11:58 p.m. EDT (0358 UTC).


Newsletter sign-up

Weekly statistics, charts and insights to help you stay on top of the space industry.